Weather History for KUNO - February, 2014

Change the Weather History Date:

Tuesday, February 18, 2014

  Actual Average Record
Temperature  
Mean Temperature 46 °F 38 °F  
Max Temperature 64 °F 50 °F 77 °F (1986)
Min Temperature 27 °F 27 °F -2 °F (1993)
Degree Days  
Heating Degree Days 19 26  
Month to date heating degree days 675 512  
Since 1 July heating degree days 3535 3216  
Cooling Degree Days 0 0  
Month to date cooling degree days 0 0  
Year to date cooling degree days 0 0  
Moisture  
Dew Point 28 °F    
Average Humidity 51    
Maximum Humidity 75    
Minimum Humidity 27    
Precipitation  
Precipitation 0.00 in 0.11 in 2.21 in (1951)
Month to date precipitation 0.25 1.80  
Year to date precipitation 1.85 4.52  
Sea Level Pressure  
Sea Level Pressure 29.97 in    
Wind  
Wind Speed 8 mph (SSW)    
Max Wind Speed 20 mph    
Max Gust Speed 27 mph    
Visibility 10 miles    
Events      
T = Trace of Precipitation, MM = Missing Value Source: NWS Daily Summary

Daily Weather History Graph

Daily Weather History Graph

Search for Another Location

Airport or City:

Trip Planner

Search our weather history database for the weather conditions in past years. The results will help you decide how hot, cold, wet, or windy it might be!

Date:

Astronomy

Feb. 18, 2014 Rise Set
Actual Time 6:52 AM CST 5:51 PM CST
Civil Twilight 6:26 AM CST 6:17 PM CST
Nautical Twilight 5:55 AM CST 6:47 PM CST
Astronomical Twilight 5:25 AM CST 7:17 PM CST
Moon 9:37 PM CST (2/18) 8:31 AM CST (2/18)
Length of Visible Light 11h 51m
Length of Day
10h 58m
Waning Gibbous, 87% of the Moon is Illuminated
Feb 18
Waning Gibbous
Feb 22
Last Quarter
Mar 1
New
Mar 8
First Quarter
Mar 16
Full

Hourly Weather History & Observations

Time (CST) Temp. Windchill Dew Point Humidity Pressure Visibility Wind Dir Wind Speed Gust Speed Precip Events Conditions
12:53 AM 39.0 °F 34.0 °F 23.0 °F 53% 30.11 in 10.0 mi WSW 6.9 mph - N/A   Clear
1:53 AM 39.0 °F 34.8 °F 23.0 °F 53% 30.10 in 10.0 mi SW 5.8 mph - N/A   Clear
2:53 AM 37.9 °F 32.7 °F 23.0 °F 55% 30.09 in 10.0 mi WSW 6.9 mph - N/A   Clear
3:53 AM 35.1 °F 30.1 °F 21.9 °F 59% 30.09 in 10.0 mi WSW 5.8 mph - N/A   Clear
4:53 AM 30.0 °F - 21.9 °F 72% 30.07 in 10.0 mi Calm Calm - N/A   Clear
5:53 AM 28.0 °F - 21.0 °F 75% 30.06 in 10.0 mi Calm Calm - N/A   Clear
6:53 AM 36.0 °F 29.6 °F 23.0 °F 59% 30.06 in 10.0 mi South 8.1 mph - N/A   Clear
7:53 AM 39.9 °F 33.9 °F 24.1 °F 53% 30.07 in 10.0 mi South 9.2 mph - N/A   Clear
8:53 AM 45.0 °F 39.3 °F 24.1 °F 44% 30.08 in 10.0 mi South 11.5 mph - N/A   Clear
9:53 AM 48.9 °F - 24.1 °F 38% 30.07 in 10.0 mi South 12.7 mph 18.4 mph N/A   Clear
10:53 AM 53.1 °F - 24.1 °F 32% 30.05 in 10.0 mi SSE 15.0 mph 25.3 mph N/A   Clear
11:53 AM 57.0 °F - 24.1 °F 28% 30.00 in 10.0 mi South 15.0 mph 24.2 mph N/A   Clear
12:53 PM 57.9 °F - 24.1 °F 27% 29.94 in 10.0 mi South 18.4 mph 26.5 mph N/A   Clear
1:53 PM 61.0 °F - 26.1 °F 26% 29.91 in 10.0 mi South 12.7 mph - N/A   Clear
2:53 PM 62.1 °F - 28.0 °F 28% 29.86 in 10.0 mi SSW 11.5 mph - N/A   Clear
3:53 PM 63.0 °F - 32.0 °F 31% 29.83 in 10.0 mi SSW 15.0 mph 23.0 mph N/A   Clear
4:53 PM 63.0 °F - 35.1 °F 35% 29.81 in 10.0 mi South 12.7 mph 23.0 mph N/A   Clear
5:53 PM 59.0 °F - 36.0 °F 42% 29.83 in 10.0 mi SSW 5.8 mph - N/A   Clear
6:53 PM 51.1 °F - 35.1 °F 54% 29.85 in 10.0 mi SSW 4.6 mph - N/A   Clear
7:53 PM 46.0 °F 44.8 °F 36.0 °F 68% 29.86 in 9.0 mi SSW 3.5 mph - N/A   Clear
8:53 PM 46.9 °F - 36.0 °F 66% 29.87 in 10.0 mi WSW 3.5 mph - N/A   Clear
9:53 PM 46.0 °F 43.9 °F 36.0 °F 68% 29.87 in 10.0 mi WSW 4.6 mph - N/A   Clear
10:53 PM 48.0 °F - 36.0 °F 63% 29.87 in 10.0 mi WSW 5.8 mph - N/A   Clear
11:53 PM 45.0 °F 41.8 °F 35.1 °F 68% 29.88 in 10.0 mi WSW 5.8 mph - N/A   Clear